Tracking 18945 objects as of 20-Jan-2018
HD Live streaming from Space Station
objects crossing your sky now

COSMOS 1723

Track COSMOS 1723 now!
10-day predictions
COSMOS 1723 is classified as:


NORAD ID: 16456
Int'l Code: 1986-002H
Perigee: 1,406.9 km
Apogee: 1,488.4 km
Inclination: 74.0 °
Period: 114.7 minutes
Semi major axis: 7818 km
RCS: 0.7097 m2 (medium)
Launch date: January 9, 1986
Source: Commonwealth of Independent States (former USSR) (CIS)
Launch site: PLESETSK MISSILE AND SPACE COMPLEX (PKMTR)
aabbcc
Your satellite tracking list
Your tracking list is empty




NASA's NSSDC Master Catalog

Two Line Element Set (TLE):
1 16456U 86002H   18019.89910135 +.00000001 +00000-0 +10391-3 0  9991
2 16456 073.9871 247.5634 0052078 025.1632 042.8390 12.55753892468215
Source of the keplerian elements: AFSPC